Weather History for KPMD - April, 2011

Change the Weather History Date:

Saturday, April 23, 2011

  Actual Average Record
Temperature  
Mean Temperature 61 °F 60 °F  
Max Temperature 71 °F 75 °F 95 °F (1949)
Min Temperature 50 °F 46 °F 29 °F (1968)
Degree Days  
Heating Degree Days 4 6  
Month to date heating degree days 163 194  
Since 1 July heating degree days 2830 2815  
Cooling Degree Days 0 1  
Month to date cooling degree days 5 8  
Year to date cooling degree days 6 10  
Growing Degree Days 10 (Base 50)    
Moisture  
Dew Point 44 °F    
Average Humidity 61    
Maximum Humidity 89    
Minimum Humidity 33    
Precipitation  
Precipitation 0.00 in 0.01 in 0.02 in (1980)
Month to date precipitation 0.01 0.38  
Year to date precipitation 2.34 4.89  
Since 1 July precipitation 7.72  
Snow  
Snow 0.00 in - - ()
Month to date snowfall 0.0  
Since 1 July snowfall 0.0  
Snow Depth 0.00 in    
Sea Level Pressure  
Sea Level Pressure 29.88 in    
Wind  
Wind Speed 13 mph (WSW)    
Max Wind Speed 24 mph    
Max Gust Speed 31 mph    
Visibility 10 miles    
Events      
T = Trace of Precipitation, MM = Missing Value Source: NWS Daily Summary

Daily Weather History Graph

Daily Weather History Graph

Search for Another Location

Airport or City:

Trip Planner

Search our weather history database for the weather conditions in past years. The results will help you decide how hot, cold, wet, or windy it might be!

Date:

Astronomy

Apr. 23, 2011 Rise Set
Actual Time 6:11 AM PDT 7:30 PM PDT
Civil Twilight 5:44 AM PDT 7:57 PM PDT
Nautical Twilight 5:13 AM PDT 8:28 PM PDT
Astronomical Twilight 4:40 AM PDT 9:01 PM PDT
Moon 12:42 AM PDT (4/23) 10:59 AM PDT (4/23)
Length of Visible Light 14h 12m
Length of Day
13h 19m
Waning Gibbous, 63% of the Moon is Illuminated
Apr 23
Waning Gibbous
Apr 24
Last Quarter
May 2
New
May 10
First Quarter
May 17
Full

Hourly Weather History & Observations

Time (PDT) Temp. Dew Point Humidity Pressure Visibility Wind Dir Wind Speed Gust Speed Precip Events Conditions
12:53 AM 51.8 °F 46.4 °F 82% 29.93 in 10.0 mi WSW 16.1 mph - N/A   Clear
1:53 AM 52.0 °F 48.0 °F 86% 29.87 in 9.0 mi WSW 10.4 mph - N/A   Clear
2:53 AM 51.8 °F 44.6 °F 76% 29.92 in 10.0 mi West 10.4 mph - N/A   Partly Cloudy
3:12 AM 51.8 °F 46.4 °F 82% 29.92 in 10.0 mi West 8.1 mph - N/A   Mostly Cloudy
3:34 AM 51.8 °F 44.6 °F 76% 29.91 in 10.0 mi West 9.2 mph - N/A   Mostly Cloudy
3:53 AM 50.0 °F 45.0 °F 83% 29.86 in 10.0 mi WSW 10.4 mph - N/A   Scattered Clouds
4:53 AM 51.1 °F 43.0 °F 74% 29.86 in 10.0 mi WSW 18.4 mph - N/A   Clear
5:53 AM 51.1 °F 42.1 °F 71% 29.87 in 10.0 mi WSW 10.4 mph - N/A   Clear
6:53 AM 51.1 °F 41.0 °F 68% 29.88 in 10.0 mi WSW 8.1 mph - N/A   Clear
7:53 AM 54.0 °F 37.0 °F 53% 29.88 in 10.0 mi WNW 6.9 mph - N/A   Clear
8:53 AM 57.9 °F 39.9 °F 51% 29.88 in 10.0 mi WNW 3.5 mph - N/A   Clear
9:53 AM 64.0 °F 39.0 °F 40% 29.87 in 10.0 mi West 12.7 mph - N/A   Clear
10:53 AM 68.0 °F 39.0 °F 35% 29.86 in 10.0 mi West 16.1 mph - N/A   Clear
11:53 AM 70.0 °F 39.9 °F 33% 29.85 in 10.0 mi West 17.3 mph 28.8 mph N/A   Clear
12:53 PM 70.0 °F 42.1 °F 36% 29.86 in 10.0 mi WSW 19.6 mph 26.5 mph N/A   Clear
1:53 PM 70.0 °F 45.0 °F 41% 29.86 in 10.0 mi WSW 17.3 mph 28.8 mph N/A   Clear
2:53 PM 70.0 °F 44.1 °F 39% 29.85 in 10.0 mi West 20.7 mph 28.8 mph N/A   Clear
3:53 PM 69.1 °F 45.0 °F 42% 29.85 in 10.0 mi West 17.3 mph 27.6 mph N/A   Clear
4:53 PM 68.0 °F 46.0 °F 45% 29.85 in 10.0 mi WSW 16.1 mph 25.3 mph N/A   Clear
5:53 PM 64.0 °F 46.0 °F 52% 29.86 in 10.0 mi WSW 17.3 mph - N/A   Clear
6:53 PM 61.0 °F 46.9 °F 60% 29.88 in 10.0 mi WSW 16.1 mph 25.3 mph N/A   Clear
7:53 PM 57.9 °F 46.9 °F 67% 29.88 in 10.0 mi SW 12.7 mph - N/A   Clear
8:53 PM 55.0 °F 46.0 °F 72% 29.90 in 10.0 mi SSW 5.8 mph - N/A   Clear
9:53 PM 55.0 °F 45.0 °F 69% 29.90 in 10.0 mi SSW 9.2 mph - N/A   Clear
10:53 PM 55.0 °F 45.0 °F 69% 29.90 in 10.0 mi SW 12.7 mph - N/A   Clear
11:53 PM 54.0 °F 44.1 °F 69% 29.91 in 10.0 mi SW 16.1 mph - N/A   Clear